AirNav   Air Wisconsin pilot careers
 
 385 users online  

7XS0 Polly Ranch Airport
Friendswood, Texas, USA

GOING TO FRIENDSWOOD?


FAA INFORMATION EFFECTIVE 03 JANUARY 2019

Location

FAA Identifier: 7XS0
Lat/Long: 29-30-16.8390N / 095-10-31.7580W
29-30.280650N / 095-10.529300W
29.5046775 / -95.1754883
(estimated)
Elevation: 24 ft. / 7.3 m (surveyed)
Variation: 06E (1985)
From city: 3 miles SE of FRIENDSWOOD, TX
Time zone: UTC -6 (UTC -5 during Daylight Saving Time)
Zip code: 77546

Airport Operations

Airport use: Private use. Permission required prior to landing
Activation date: 03/1977
Control tower: no
ARTCC: HOUSTON CENTER
FSS: MONTGOMERY COUNTY FLIGHT SERVICE STATION
Attendance: UNATNDD
Wind indicator: yes
Segmented circle: no
Lights: SS-SR
Landing fee: yes

Airport Communications

WX ASOS at LVJ (4 nm W): 118.525 (281-992-1853)
WX ASOS at HOU (10 nm NW): PHONE 713-847-1462
WX AWOS-3 at AXH (16 nm W): 123.625 (281-431-6572)

Nearby radio navigation aids

VOR radial/distance  VOR name  Freq  Var
HUBr145/10.5HOBBY VOR/DME117.1005E
VUHr305/21.4SCHOLES VOR/DME113.0006E
MHFr257/22.5TRINITY VOR/DME113.6007E
IAHr157/28.5HUMBLE VORTAC116.6005E

 
NDB name  Hdg/Dist  Freq  Var  ID
GALVESTON287/24.220608EGLS --. .-.. ...
NIXIN171/29.432605EBVP -... ...- .--.

Airport Services

Runway Information

Runway 11/29

Dimensions: 2700 x 22 ft. / 823 x 7 m
Surface: asphalt
Runway edge lights: low intensity
RUNWAY 11  RUNWAY 29
Traffic pattern: leftleft
Displaced threshold: 300 ft.300 ft.
Obstructions: none50 ft. trees, 500 ft. from runway

Airport Ownership and Management from official FAA records

Ownership: Privately-owned
Owner: POLLY RANCH HOME OWNERS ASSOC
PO BOX 161
FRIENDSWOOD, TX 77546
Phone 713-482-6430
Manager: GAYLON KOENNING
2306 BUTLER DR
FRIENDSWOOD, TX 77546
Phone (713) 503-2055

Airport Operational Statistics

Aircraft based on the field: 36
Single engine airplanes: 30
Multi engine airplanes: 6
    

Additional Remarks

TO OBTAIN IFR CLEARANCE, CALL HOUSTON TRACON (I90) 1-281-443-5844.
FOR FLT PLAN FILING CALL MONTGOMERY CO. (CXO) FSS 1-800-WXBRIEF/1800-992-7433.

Instrument Procedures

There are no published instrument procedures at 7XS0.

Some nearby airports with instrument procedures:

KLVJ - Pearland Regional Airport (4 nm W)
KEFD - Ellington Airport (6 nm N)
KHOU - William P Hobby Airport (10 nm NW)
T41 - La Porte Municipal Airport (11 nm NE)
KAXH - Houston Southwest Airport (16 nm W)
 
Loc | Ops | Rwys | IFR | FBO | Links
Com | Nav | Svcs | Stats | Notes
Area around 7XS0 (Polly Ranch Airport)
 
Road maps at: MapQuest Bing Google
 
Aerial photo
WARNING: Photo may not be current or correct
Aerial photo of 7XS0 (Polly Ranch Airport)
Do you have a better or more recent aerial photo of Polly Ranch Airport that you would like to share? If so, please send us your photo.

 
Sectional chart

 
Airport distance calculator
Flying to Polly Ranch Airport? Find the distance to fly.

From to 7XS0

Sunrise and sunset
Times for 19-Jan-2019
 Local
(UTC-6)
 Zulu
(UTC)
Morning civil twilight06:5112:51
Sunrise07:1713:17
Sunset17:4623:46
Evening civil twilight18:1200:12

Current date and time
Zulu (UTC)  19-Jan-2019 11:43:59
Local (UTC-6)  19-Jan-2019 05:43:59
 
METAR
KLVJ 
4nm W 
191053Z AUTO 24003KT 10SM OVC065 16/16 A2979 RMK AO2 RAE24 TSE0954 SLP088 P0000 T01610156
KEFD 
6nm N 
191050Z 22005KT 10SM FEW030 BKN070 BKN250 16/15 A2979
KHOU 
10nm NW 
191053Z 24005KT 10SM FEW030 BKN070 OVC250 17/15 A2977 RMK AO2 RAE27 TSE17 SLP085 TS MOVD NE-SE P0001 T01670150
KAXH 
16nm W 
191115Z AUTO 25003KT 10SM -DZ OVC065 15/15 A2980 RMK AO2 T01510147
TAF
KEFD 
6nm N 
191000Z 1910/2010 30012G20KT 8000 BR FEW015 OVC030 QNH2976INS TEMPO 1910/1912 31015G35KT 3200 -TSRAGR OVC015CB BECMG 1911/1912 33015G25KT 9999 NSW BKN025 QNH2981INS TEMPO 1912/1922 33020G35KT 520001 BECMG 2000/2001 32012KT 9999 SCT040 QNH3010INS TX21/1910Z TN03/2004Z
KHOU 
10nm NW 
190941Z 1910/2006 26009KT P6SM -TSRA SCT015CB BKN025CB OVC050 FM191030 23011KT P6SM VCTS SCT025CB BKN080 FM191100 26014KT P6SM SCT040 BKN080 FM191400 31020G30KT P6SM SCT030 FM192100 31019KT P6SM SKC FM200500 34014KT P6SM SKC
NOTAMs
Click for the latest NOTAMs
NOTAMs are issued by the DoD/FAA and will open in a separate window not controlled by AirNav.

 

 
 

Would you like to see your business listed on this page?

 If your business provides an interesting product or service to pilots, flight crews, aircraft, or users of the Polly Ranch Airport, you should consider listing it here.  To start the listing process, click on the button below
 
Add a business
 

Other Pages about Polly Ranch Airport

www.pollyranch.com
 
Update a link
 
Copyright © AirNav, LLC. All rights reserved. Privacy Policy  Contact